CAPE
0 0 0 0 0 0 0 0 0 0 0 0 0 0 0 0 0 0 0 0 0 0 0 0 0 0 0 0 0 76 372 460 704
0 0 0 0 0 0 0 0 0 0 0 0 0 0 0 0 0 0 0 0 0 0 0 0 0 0 0 0 1 11 14 104 500
0 0 0 0 0 0 0 0 0 0 0 0 0 0 0 0 0 0 0 0 0 0 0 0 0 0 1 2 28 25 14 16 7
0 0 0 0 0 0 0 0 0 0 0 0 0 0 0 0 0 0 0 0 0 0 0 0 0 0 0 14 19 51 30 19 118
0 0 0 0 0 0 0 0 0 0 0 0 0 0 0 0 0 0 0 0 0 0 0 0 0 2 12 4 4 5 3 2 32
0 0 0 0 0 0 0 0 0 0 0 0 0 0 0 0 0 0 1 4 1 0 0 0 2 9 2 2 5 20 15 9 4
0 0 0 0 0 0 0 0 0 0 0 0 0 0 0 0 0 0 5 13 67 55 51 33 22 6 7 8 11 19 2 3 12
0 0 0 0 0 0 0 0 0 0 0 0 0 0 0 0 0 0 13 15 8 19 20 21 7 2 41 33 27 23 26 9 0
0 0 0 0 0 0 0 0 0 0 0 0 0 0 0 0 0 0 15 12 15 22 23 17 14 13 15 59 51 35 25 18 26
0 0 0 0 0 0 0 0 0 0 0 0 0 0 0 0 0 0 0 0 3 12 19 31 26 26 22 18 12 14 25 16 14
0 0 0 0 0 0 0 0 0 0 0 0 0 0 0 0 0 0 0 0 0 6 13 10 10 22 24 46 58 31 22 31 27
0 0 0 0 0 0 0 0 0 0 0 0 0 0 0 0 0 0 0 0 0 0 1 6 12 10 9 43 67 44 33 5 6
0 0 0 0 0 0 0 0 0 0 0 0 0 0 0 0 0 0 0 0 0 0 0 0 0 10 9 18 31 65 49 51 48
0 0 0 0 0 0 0 0 0 0 0 0 0 0 0 0 0 0 0 0 0 0 0 0 0 1 5 6 6 15 17 21 18
0 0 0 0 0 0 0 0 0 0 0 0 0 0 0 0 0 0 0 0 0 0 0 0 0 0 0 1 0 0 0 6 7
0 0 0 0 0 0 0 0 0 0 0 0 0 0 0 0 0 0 0 0 0 0 0 0 0 0 0 0 0 0 1 3 1
0 0 0 0 0 0 0 0 0 0 0 0 0 0 0 0 0 0 0 0 0 0 0 0 0 0 0 0 0 0 0 3 7
0 0 0 0 0 0 0 0 0 0 0 0 0 0 0 0 0 0 0 0 0 0 0 0 0 0 0 0 0 0 0 0 2
0 0 0 0 0 0 0 0 0 0 0 0 0 0 0 0 0 0 0 0 0 0 0 0 0 0 0 0 0 0 0 0 1
0 0 0 0 0 0 0 0 0 0 0 0 0 0 0 0 0 0 0 0 0 0 0 0 0 0 0 0 0 0 0 0 0
CIN
-0 -0 -0 -0 -0 -0 -0 -0 -0 -0 -0 -0 -0 -0 -0 -0 -0 -0 -0 -0 -0 -0 -0 -0 -0 -0 -0 -0 -0 -65 -0 -0 -0
-0 -0 -0 -0 -0 -0 -0 -0 -0 -0 -0 -0 -0 -0 -0 -0 -0 -0 -0 -0 -0 -0 -0 -0 -0 -0 -0 -0 -30 -193 -178 -70 -0
-0 -0 -0 -0 -0 -0 -0 -0 -0 -0 -0 -0 -0 -0 -0 -0 -0 -0 -0 -0 -0 -0 -0 -0 -0 -0 -0 -64 -252 -241 -205 -181 -217
-0 -0 -0 -0 -0 -0 -0 -0 -0 -0 -0 -0 -0 -0 -0 -0 -0 -0 -0 -0 -0 -0 -0 -0 -0 -0 -0 -320 -305 -251 -266 -250 -94
-0 -0 -0 -0 -0 -0 -0 -0 -0 -0 -0 -0 -0 -0 -0 -0 -0 -0 -0 -0 -0 -0 -0 -0 -0 -0 -0 -0 -0 -398 -0 -105 -262
-0 -0 -0 -0 -0 -0 -0 -0 -0 -0 -0 -0 -0 -0 -0 -0 -0 -0 -0 -0 -0 -0 -0 -0 -0 -0 -0 -0 -0 -341 -378 -347 -0
-0 -0 -0 -0 -0 -0 -0 -0 -0 -0 -0 -0 -0 -0 -0 -0 -0 -0 -0 -1 -0 -0 -0 -0 -1 -0 -0 -0 -0 -0 -0 -0 -0
-0 -0 -0 -0 -0 -0 -0 -0 -0 -0 -0 -0 -0 -0 -0 -0 -0 -0 -0 -0 -0 -1 -1 -4 -0 -0 -0 -0 -0 -0 -0 -0 -0
-0 -0 -0 -0 -0 -0 -0 -0 -0 -0 -0 -0 -0 -0 -0 -0 -0 -0 -1 -0 -1 -0 -0 -0 -0 -0 -2 -0 -0 -0 -0 -0 -0
-0 -0 -0 -0 -0 -0 -0 -0 -0 -0 -0 -0 -0 -0 -0 -0 -0 -0 -0 -0 -0 -0 -0 -0 -1 -0 -0 -0 -0 -0 -0 -0 -0
-0 -0 -0 -0 -0 -0 -0 -0 -0 -0 -0 -0 -0 -0 -0 -0 -0 -0 -0 -0 -0 -0 -0 -0 -0 -0 -0 -0 -0 -0 -0 -0 -0
-0 -0 -0 -0 -0 -0 -0 -0 -0 -0 -0 -0 -0 -0 -0 -0 -0 -0 -0 -0 -0 -0 -0 -0 -0 -0 -0 -0 -0 -0 -0 -0 -0
-0 -0 -0 -0 -0 -0 -0 -0 -0 -0 -0 -0 -0 -0 -0 -0 -0 -0 -0 -0 -0 -0 -0 -0 -0 -0 -0 -0 -0 -0 -0 -0 -0
-0 -0 -0 -0 -0 -0 -0 -0 -0 -0 -0 -0 -0 -0 -0 -0 -0 -0 -0 -0 -0 -0 -0 -0 -0 -0 -0 -0 -0 -0 -0 -0 -0
-0 -0 -0 -0 -0 -0 -0 -0 -0 -0 -0 -0 -0 -0 -0 -0 -0 -0 -0 -0 -0 -0 -0 -0 -0 -0 -0 -0 -0 -0 -0 -6 -2
-0 -0 -0 -0 -0 -0 -0 -0 -0 -0 -0 -0 -0 -0 -0 -0 -0 -0 -0 -0 -0 -0 -0 -0 -0 -0 -0 -0 -0 -0 -0 -0 -0
-0 -0 -0 -0 -0 -0 -0 -0 -0 -0 -0 -0 -0 -0 -0 -0 -0 -0 -0 -0 -0 -0 -0 -0 -0 -0 -0 -0 -0 -0 -0 -0 -0
-0 -0 -0 -0 -0 -0 -0 -0 -0 -0 -0 -0 -0 -0 -0 -0 -0 -0 -0 -0 -0 -0 -0 -0 -0 -0 -0 -0 -0 -0 -0 -0 -0
-0 -0 -0 -0 -0 -0 -0 -0 -0 -0 -0 -0 -0 -0 -0 -0 -0 -0 -0 -0 -0 -0 -0 -0 -0 -0 -0 -0 -0 -0 -0 -0 -0
-0 -0 -0 -0 -0 -0 -0 -0 -0 -0 -0 -0 -0 -0 -0 -0 -0 -0 -0 -0 -0 -0 -0 -0 -0 -0 -0 -0 -0 -0 -0 -0 -0
Wind_Speed
11 11 11 11 11 11 11 11 11 11 11 11 12 12 10 7 6 5 6 6 7 7 7 7 7 6 6 6 7 8 9 9 9
11 11 11 11 11 11 11 11 11 11 11 11 11 11 10 6 6 6 5 6 8 7 8 7 7 6 7 7 7 8 8 8 9
11 11 11 11 10 11 12 12 11 11 11 11 11 10 9 6 6 5 5 8 8 8 8 7 7 7 7 7 8 8 8 8 8
11 10 10 11 11 11 11 11 11 10 10 10 10 10 9 6 5 5 5 8 9 8 8 7 6 7 6 8 7 9 9 9 10
10 8 10 11 11 11 11 11 11 10 10 10 10 10 9 7 5 5 6 9 9 8 8 7 7 7 8 7 7 7 8 9 9
6 9 10 10 10 11 11 11 11 9 10 11 9 8 5 5 4 4 9 7 8 9 8 8 7 9 7 6 6 7 7 7 8
6 8 10 10 10 11 11 11 10 8 5 4 6 4 5 5 5 5 12 10 13 13 12 11 12 10 10 10 9 10 7 7 8
3 3 3 4 7 4 5 5 5 7 5 4 5 5 5 4 4 8 13 13 11 11 13 13 10 9 9 10 10 11 11 8 7
4 3 3 3 3 4 5 4 5 6 6 6 6 6 5 4 4 7 13 13 13 12 11 11 10 10 11 13 12 11 11 11 9
3 3 3 3 3 4 4 4 4 5 5 5 6 6 7 7 4 4 11 13 12 11 12 14 14 13 12 12 12 11 12 10 9
4 4 3 3 3 3 4 4 4 4 3 5 6 6 6 7 7 5 6 13 14 14 12 12 12 14 12 13 16 12 11 12 11
5 3 3 2 3 4 4 4 4 4 3 5 4 4 6 6 6 5 5 6 11 13 13 12 12 12 12 15 18 13 12 11 10
5 3 3 2 3 3 4 3 4 4 3 3 3 3 4 5 6 5 5 5 5 7 13 12 12 11 12 14 15 18 15 13 12
5 3 3 3 3 4 3 4 4 4 3 3 3 3 3 4 3 5 6 6 5 5 8 11 11 11 11 12 13 14 15 15 16
5 3 4 3 3 3 4 5 4 3 3 3 3 3 3 3 3 4 4 5 5 5 6 5 5 10 12 13 14 14 13 14 14
5 3 4 4 3 4 3 3 5 6 3 2 3 2 2 3 2 2 2 4 7 4 5 4 4 4 9 12 14 15 14 13 13
5 4 4 4 3 4 5 4 2 3 6 2 1 1 2 1 3 2 3 5 5 4 4 5 5 4 4 8 13 14 14 14 13
5 5 5 5 3 3 4 5 4 3 4 6 2 2 1 2 1 2 3 5 4 4 4 3 3 4 4 5 7 13 14 14 14
6 5 5 5 3 4 4 4 4 2 3 2 4 5 2 2 1 1 2 5 3 5 4 4 3 3 3 5 6 11 13 14 15
6 5 6 5 3 4 4 5 5 3 3 2 1 3 3 3 1 2 3 4 3 5 4 3 2 3 3 4 7 12 14 15 15
Wind_Direction
85 81 79 73 70 67 63 59 54 49 48 46 46 46 47 45 49 43 23 20 39 37 27 18 18 15 17 24 25 26 25 22 30
86 82 81 73 68 60 52 55 51 49 47 44 45 44 50 50 52 49 33 13 32 27 23 18 19 26 26 24 29 24 13 12 17
87 80 73 69 66 58 55 49 47 47 48 49 48 45 44 50 60 51 30 1 16 21 25 22 25 25 31 32 31 27 21 19 8
81 76 70 68 63 58 53 47 47 46 49 50 54 51 50 55 50 38 20 8 25 32 33 30 30 37 36 42 35 31 26 22 16
77 60 70 65 62 60 55 51 47 45 43 47 52 54 56 56 44 32 20 30 41 42 41 37 38 41 50 35 31 27 23 23 20
79 70 70 65 63 60 57 52 46 44 43 46 49 54 53 58 44 24 15 32 56 57 54 50 44 53 35 30 25 27 22 21 25
93 73 65 60 58 58 54 53 47 43 41 45 45 53 61 59 50 27 20 27 58 56 57 45 45 36 24 25 20 5 358 1 14
83 82 60 52 48 51 53 47 44 44 43 46 49 55 59 61 58 31 22 34 34 35 37 34 36 22 19 37 29 22 23 15 8
100 91 78 65 53 62 52 53 52 52 51 48 52 62 57 62 61 50 35 30 31 46 46 45 36 17 15 38 40 33 28 19 19
116 103 87 73 72 53 61 60 58 54 56 57 61 71 68 64 57 56 35 40 35 35 46 40 32 24 22 24 16 24 28 33 32
119 114 90 77 63 59 59 61 58 51 58 70 69 74 74 67 60 51 43 37 36 34 34 37 32 26 26 19 29 50 48 46 46
121 117 104 87 83 85 76 75 62 61 83 73 63 71 69 69 63 54 48 36 32 28 31 31 25 27 27 17 33 51 53 44 36
119 126 112 114 87 73 68 59 56 58 67 83 67 72 73 68 62 54 46 44 37 26 24 27 27 23 29 21 22 42 45 42 48
126 141 122 108 85 71 73 65 43 43 69 87 80 68 68 66 68 57 49 42 32 27 28 24 24 25 25 22 25 26 33 38 37
132 138 121 112 96 80 76 80 59 48 63 80 90 65 58 50 52 57 49 39 31 27 22 24 27 22 22 23 22 22 20 24 22
142 140 123 103 89 80 80 98 54 46 31 119 96 79 44 38 54 43 50 42 16 28 27 29 26 30 26 24 21 18 17 17 17
147 152 125 117 117 99 72 70 99 55 19 78 83 70 156 53 26 11 11 10 2 23 24 27 27 34 33 25 19 19 15 12 11
144 144 129 121 124 109 93 75 76 90 56 48 60 126 45 322 20 13 5 10 2 15 3 2 21 45 47 25 22 15 9 6 3
143 138 131 128 130 121 98 90 82 100 72 94 56 64 53 30 343 66 341 340 12 356 358 6 62 55 54 40 20 9 2 355 351
140 141 132 131 129 116 109 104 92 78 93 64 87 73 78 79 40 318 337 335 351 352 352 357 48 57 59 52 30 12 3 353 344